This is the latest recevied weather packets stored in our database for station/object KQ4UWH. If no packets are shown the sender has not sent any weather packets the latest 10 day(s).
| Time | Temp. | Humidity | Pressure | Rain* | Wind** | Luminosity | Snow |
|---|---|---|---|---|---|---|---|
| 1777902676 | 13.89° C | 68% | 1239.7 hPa | 0 mm | - | 41 W/m² | - |
| 1777902374 | 13.89° C | 68% | 1239.7 hPa | 0 mm | - | 36 W/m² | - |
| 1777902070 | 13.33° C | 75% | 1239.7 hPa | 0 mm | - | 51 W/m² | - |
| 1777901769 | 12.78° C | 77% | 1239.7 hPa | 0 mm | - | 35 W/m² | - |
| 1777901465 | 12.22° C | 81% | 1239.7 hPa | 0 mm | - | 37 W/m² | - |
| 1777901163 | 11.67° C | 83% | 1239.7 hPa | 0 mm | - | 39 W/m² | - |
| 1777900861 | 11.11° C | 84% | 1239.7 hPa | 0 mm | - | 35 W/m² | - |
| 1777900558 | 10.56° C | 86% | 1239.7 hPa | 0 mm | - | 34 W/m² | - |
| 1777900255 | 10.56° C | 88% | 1239.7 hPa | 0 mm | - | 32 W/m² | - |
| 1777899951 | 10° C | 89% | 1239.7 hPa | 0 mm | - | 30 W/m² | - |
| 1777899648 | 9.44° C | 91% | 1239.7 hPa | 0 mm | - | 28 W/m² | - |
| 1777899346 | 9.44° C | 92% | 1239.7 hPa | 0 mm | - | 27 W/m² | - |
| 1777899043 | 8.89° C | 93% | 1239.7 hPa | 0 mm | - | 27 W/m² | - |
| 1777898739 | 8.89° C | 93% | 1239.7 hPa | 0 mm | - | 26 W/m² | - |
| 1777898437 | 8.33° C | 95% | 1239.7 hPa | 0 mm | - | 28 W/m² | - |
| 1777898135 | 8.33° C | 95% | 1239.7 hPa | 0 mm | - | 24 W/m² | - |
| 1777897832 | 7.78° C | 96% | 1239.7 hPa | 0 mm | - | 23 W/m² | - |
| 1777897528 | 7.78° C | 97% | 1239.7 hPa | 0 mm | - | 22 W/m² | - |
| 1777897223 | 7.78° C | 97% | 1239.7 hPa | 0 mm | - | 24 W/m² | - |
| 1777896920 | 7.78° C | 98% | 1239.7 hPa | 0 mm | - | 27 W/m² | - |
| 1777896617 | 7.22° C | 98% | 1239.7 hPa | 0 mm | - | 29 W/m² | - |
| 1777896314 | 7.22° C | 98% | 1239.7 hPa | 0 mm | - | 30 W/m² | - |
| 1777896013 | 6.67° C | 98% | 1239.7 hPa | 0 mm | - | 29 W/m² | - |
| 1777895710 | 6.67° C | 98% | 1239.7 hPa | 0 mm | - | 28 W/m² | - |
| 1777895407 | 6.67° C | 98% | 1239.7 hPa | 0 mm | - | 26 W/m² | - |
* Rain latest hour (hover to see other rain measurements)
** Current wind speed in m/s (hover to see current wind gust speed)